Wind_Speed
38 39 39 39 40 39 39 38 38 38 37 37 37 37 36 35 34 33 33 32 31 31 30 30 30 31 30 31 30 29 30 30 30 30 31 31 31 31 31 31 31 31 31
40 40 40 40 40 40 40 40 40 39 39 39 38 38 37 37 37 36 34 33 33 32 33 33 32 32 32 32 31 31 31 31 32 33 33 32 33 33 32 33 33 32 33
42 42 42 42 42 42 42 41 41 40 40 40 39 39 38 38 38 37 36 35 35 34 34 34 34 34 34 34 33 32 32 32 33 34 34 34 34 34 34 34 34 34 35
43 43 42 42 43 43 43 43 42 42 41 41 41 41 40 39 39 39 37 36 36 36 35 35 35 34 34 34 34 34 34 34 34 34 35 35 36 36 36 36 36 36 36
44 44 43 43 43 43 43 43 43 43 42 42 43 42 42 41 40 39 39 38 37 36 36 35 36 35 35 35 35 34 34 34 35 35 36 36 37 37 37 37 37 37 37
44 44 45 44 44 44 44 44 44 44 44 43 43 43 43 42 41 40 39 39 39 38 37 37 36 36 36 36 36 36 35 35 35 36 37 38 38 37 37 37 37 37 38
44 44 45 45 45 45 45 45 45 45 45 45 45 45 44 43 42 41 40 40 41 41 39 38 38 37 37 37 37 37 37 37 37 38 38 38 38 38 38 37 38 38 38
44 44 44 44 45 44 45 45 45 45 45 45 45 45 44 44 44 43 42 42 42 41 40 39 38 38 38 38 39 39 39 39 40 40 40 40 40 40 40 40 39 39 40
44 44 44 44 44 45 44 45 45 45 45 45 45 45 45 46 45 44 44 43 43 42 41 41 41 40 40 39 40 41 41 41 41 42 42 42 41 41 41 41 40 40 40
44 44 43 43 43 44 44 44 44 44 44 45 45 46 46 46 46 45 44 43 43 43 42 42 41 41 41 41 41 41 42 42 42 42 42 42 41 41 41 41 41 41 40
44 43 43 43 43 43 43 44 44 44 44 45 44 44 44 44 45 44 44 43 43 43 43 43 43 42 42 42 42 42 42 42 42 42 41 41 41 41 42 42 42 42 41
42 42 42 42 42 42 42 42 43 43 43 43 44 43 43 42 43 43 44 44 44 43 43 43 43 43 43 43 43 42 42 42 42 42 41 41 41 42 43 42 43 43 42
42 41 41 41 42 42 42 43 42 42 42 42 43 43 43 42 42 43 44 44 44 44 43 43 43 43 43 44 44 43 43 42 42 43 42 42 42 43 42 43 43 43 43
42 41 41 41 42 43 42 43 43 43 43 43 43 43 43 43 43 43 43 44 44 43 42 42 42 43 43 44 44 44 44 44 43 43 43 42 42 43 43 43 44 43 44
41 41 41 41 41 42 42 42 42 42 43 42 42 43 43 43 43 42 43 43 43 43 43 43 43 42 43 43 44 44 44 44 44 44 44 44 44 44 44 45 45 45 45
41 41 41 40 40 41 41 41 41 41 42 42 42 42 42 42 42 42 43 43 44 44 44 43 43 43 44 44 44 44 44 45 45 45 46 45 45 45 45 46 47 47 46
41 40 40 39 39 39 39 40 40 40 41 41 41 41 41 42 42 43 43 44 44 45 46 45 45 45 45 44 44 44 44 45 45 46 46 47 46 47 47 47 47 47 47
38 38 38 37 37 37 37 39 39 39 40 40 40 40 40 41 42 42 43 44 45 45 46 46 46 47 47 46 46 46 46 45 45 46 47 48 48 48 47 47 47 47 48
36 37 37 37 37 37 38 38 39 39 39 40 40 40 40 41 42 43 44 45 46 46 46 46 46 47 47 47 47 47 47 46 46 46 47 48 49 48 48 48 47 48 48
35 35 36 36 37 37 37 38 39 38 38 39 39 39 40 41 41 42 43 44 45 46 46 46 47 47 47 48 48 47 47 47 47 47 48 48 49 48 48 48 48 48 48
34 34 35 36 36 36 37 37 37 37 38 38 38 39 39 40 41 41 42 43 44 46 46 47 47 47 47 47 48 48 48 48 48 48 48 48 48 49 47 47 48 48 48
32 33 34 34 35 35 35 36 36 37 37 37 38 38 38 39 39 40 41 42 42 44 45 46 46 46 47 46 47 47 47 48 47 47 47 46 46 47 47 47 47 48 48
32 32 33 33 33 34 35 35 35 36 36 36 36 36 37 37 38 38 39 40 40 41 43 44 44 44 44 44 45 46 46 46 46 46 46 46 46 46 46 46 47 47 47
31 31 32 33 33 34 34 34 34 35 35 35 35 35 36 36 37 37 38 38 39 40 41 42 42 42 42 43 43 44 44 44 43 43 44 44 45 45 46 46 46 46 45
30 30 31 32 32 32 33 34 34 34 33 34 34 35 35 36 36 36 36 37 37 38 39 40 40 39 39 40 40 41 40 40 40 40 40 41 42 42 43 42 42 42 42
29 29 30 30 31 31 32 32 32 32 33 33 33 33 33 33 34 34 34 34 35 35 36 37 37 37 37 37 38 38 38 37 37 37 38 39 40 40 40 40 40 40 40
Wind_Direction
261 261 260 261 261 261 261 262 262 262 262 262 262 262 263 264 264 266 265 265 265 266 264 264 264 265 266 266 266 266 266 267 267 266 267 268 270 271 273 274 274 275 276
261 260 261 260 261 261 262 261 261 262 261 261 261 261 262 262 263 263 264 266 266 266 265 264 264 265 266 267 267 266 267 267 268 268 269 270 270 271 273 273 273 273 274
261 260 260 260 261 262 262 262 262 261 261 260 260 260 261 261 262 264 265 265 265 265 265 264 263 264 266 267 267 267 267 267 268 268 269 269 269 271 272 273 273 274 274
261 260 260 261 262 263 262 262 261 260 259 259 260 260 261 262 263 264 265 265 264 263 263 263 263 264 266 266 266 266 266 266 268 268 269 269 269 271 272 273 275 275 275
261 260 260 261 261 262 262 261 261 260 259 258 259 260 261 262 262 263 264 264 263 263 264 264 263 264 265 266 266 266 266 266 266 267 269 270 271 271 271 273 274 275 276
262 261 260 262 262 262 262 261 261 259 258 258 259 261 262 261 262 262 263 263 263 263 263 263 264 265 266 265 265 265 266 266 266 267 269 270 273 272 272 274 273 275 275
264 263 263 263 263 263 263 262 262 260 259 259 260 260 261 261 261 262 263 263 263 263 262 263 264 265 265 265 264 265 266 266 266 269 270 272 273 273 274 276 275 275 276
264 263 263 263 263 263 263 262 261 260 259 259 260 261 262 262 262 262 264 262 262 262 263 263 264 264 265 266 267 266 266 267 269 270 272 273 274 274 274 276 276 277 277
264 263 263 263 264 263 262 261 260 260 260 260 260 261 262 262 262 263 263 262 262 263 264 264 264 265 266 267 269 269 268 268 269 270 272 272 274 274 274 276 276 277 278
264 263 263 263 262 262 261 261 260 261 261 260 260 261 262 262 262 261 261 261 261 262 263 264 264 265 267 267 269 270 269 269 270 270 271 272 272 272 273 274 275 276 277
263 263 263 262 261 260 260 260 260 260 260 260 261 261 262 262 261 261 260 259 259 260 262 263 264 266 267 268 268 269 269 268 269 270 270 271 272 272 272 273 274 274 275
262 262 262 261 260 260 260 260 260 260 260 260 260 261 261 261 261 261 260 260 259 259 261 263 264 265 266 267 268 269 269 268 269 269 269 270 271 272 272 272 273 273 274
262 262 261 260 260 260 261 261 261 260 259 260 261 261 261 262 262 261 261 261 261 260 260 262 263 265 266 267 268 268 268 268 269 269 269 270 270 271 272 272 273 273 274
262 262 262 261 260 260 261 261 261 260 259 260 261 261 260 261 261 261 261 260 260 260 261 262 263 264 265 266 267 268 268 269 269 269 269 269 270 271 271 272 273 274 274
261 262 262 261 261 260 260 261 261 261 261 261 262 261 260 260 260 260 260 260 261 260 260 262 263 264 265 266 266 267 268 269 269 269 269 269 270 271 272 272 273 274 274
262 262 261 261 261 261 260 261 262 262 262 262 263 261 260 259 259 260 261 261 261 261 261 262 264 265 265 266 266 266 267 267 269 269 269 269 270 271 272 273 273 275 275
261 261 261 260 261 261 261 262 262 262 262 262 263 262 261 261 261 261 261 261 262 262 261 262 264 265 265 266 266 266 266 268 269 269 269 269 270 271 272 273 274 275 275
261 260 260 259 259 259 261 262 262 262 262 262 262 262 262 262 262 262 261 261 262 262 262 263 264 265 266 266 266 266 267 268 269 269 269 269 270 272 272 273 274 275 275
259 260 259 259 259 260 261 263 262 263 263 262 262 263 263 263 263 263 262 262 263 263 263 263 264 266 266 267 266 266 266 267 268 269 270 270 271 272 273 274 274 275 276
259 258 259 259 260 261 261 262 263 264 263 263 263 263 263 265 265 265 265 264 264 264 265 265 266 267 267 266 266 266 267 267 268 269 269 270 271 272 273 274 275 275 276
260 259 260 261 261 262 262 263 264 264 264 264 265 265 264 265 266 267 266 266 266 266 266 266 267 267 267 267 266 267 267 268 269 268 269 269 271 272 272 274 275 275 275
261 261 262 262 262 263 264 264 265 266 267 267 267 267 266 266 267 267 268 268 267 267 267 267 267 268 268 267 266 267 269 269 269 268 269 270 271 272 273 274 275 275 275
262 262 262 263 263 264 265 266 267 268 268 268 268 268 268 268 268 269 269 269 268 269 269 269 269 269 269 267 266 267 268 270 270 270 269 270 271 273 273 274 275 276 276
263 263 263 263 264 265 266 267 268 269 269 269 269 269 269 270 270 270 270 270 270 270 270 269 269 268 267 267 268 268 269 270 270 270 269 270 271 272 273 274 275 276 276
264 265 264 264 265 266 266 267 269 269 269 269 269 270 271 272 272 271 271 271 271 271 271 270 269 267 267 268 268 268 269 270 271 271 271 272 272 273 274 275 275 275 276
265 266 265 265 265 266 266 267 268 269 270 270 270 271 272 272 272 271 271 272 272 272 273 272 270 268 268 268 268 268 269 271 272 273 273 274 274 274 274 274 274 274 276
Height
5771 5772 5773 5774 5775 5776 5777 5779 5779 5781 5782 5783 5784 5786 5787 5788 5789 5790 5791 5792 5793 5794 5794 5795 5796 5796 5797 5797 5798 5798 5799 5799 5799 5800 5800 5801 5801 5801 5800 5800 5800 5800 5800
5761 5762 5763 5764 5766 5767 5768 5769 5770 5772 5773 5774 5775 5777 5778 5780 5781 5782 5784 5785 5786 5787 5787 5788 5789 5790 5790 5790 5791 5792 5792 5793 5793 5793 5793 5794 5794 5794 5793 5793 5793 5793 5793
5751 5752 5753 5755 5756 5757 5758 5759 5761 5762 5763 5765 5767 5768 5769 5771 5772 5774 5775 5776 5777 5778 5780 5781 5781 5782 5783 5783 5784 5785 5785 5786 5786 5786 5786 5786 5786 5786 5786 5786 5786 5785 5785
5740 5742 5743 5744 5746 5747 5748 5749 5750 5752 5753 5755 5757 5759 5760 5762 5763 5765 5766 5767 5769 5770 5771 5772 5773 5774 5775 5776 5777 5777 5778 5778 5778 5778 5778 5778 5778 5778 5778 5778 5777 5777 5777
5730 5731 5732 5734 5735 5736 5737 5738 5740 5742 5743 5746 5747 5749 5751 5753 5754 5756 5757 5758 5760 5761 5762 5764 5765 5766 5767 5768 5769 5769 5770 5770 5770 5770 5770 5770 5770 5770 5769 5769 5769 5768 5768
5719 5720 5721 5723 5724 5725 5727 5728 5729 5731 5733 5735 5737 5739 5741 5743 5745 5746 5748 5749 5751 5752 5754 5755 5756 5757 5758 5759 5760 5761 5761 5762 5762 5762 5762 5762 5761 5761 5761 5760 5760 5759 5759
5708 5709 5710 5712 5713 5714 5716 5717 5718 5720 5722 5724 5727 5729 5731 5733 5735 5736 5738 5739 5741 5743 5744 5745 5747 5748 5749 5750 5751 5752 5752 5753 5753 5753 5753 5753 5752 5752 5752 5751 5751 5750 5750
5697 5698 5699 5700 5702 5703 5704 5706 5707 5709 5711 5713 5715 5718 5720 5723 5724 5726 5728 5730 5731 5733 5734 5736 5737 5739 5740 5741 5742 5742 5743 5743 5744 5744 5744 5743 5743 5743 5742 5742 5742 5741 5740
5685 5686 5688 5689 5690 5692 5693 5694 5696 5698 5700 5702 5704 5706 5709 5712 5714 5716 5718 5719 5721 5723 5724 5726 5728 5729 5730 5731 5732 5732 5733 5733 5734 5734 5734 5734 5734 5733 5733 5732 5732 5731 5730
5674 5675 5677 5678 5679 5681 5682 5684 5685 5687 5689 5691 5693 5695 5698 5700 5702 5705 5707 5708 5710 5712 5714 5715 5717 5718 5720 5721 5721 5722 5722 5723 5723 5723 5724 5724 5723 5723 5722 5722 5722 5722 5721
5663 5664 5666 5667 5669 5670 5671 5673 5674 5676 5677 5680 5682 5684 5686 5688 5690 5692 5695 5698 5699 5701 5703 5704 5706 5708 5709 5710 5711 5711 5711 5712 5712 5713 5713 5713 5713 5712 5712 5712 5712 5711 5710
5652 5653 5654 5656 5658 5659 5661 5662 5664 5665 5667 5669 5671 5673 5675 5677 5679 5681 5683 5685 5688 5690 5692 5693 5695 5696 5698 5699 5699 5700 5700 5701 5702 5702 5702 5702 5702 5702 5701 5701 5701 5700 5700
5642 5643 5644 5646 5647 5649 5650 5651 5653 5655 5657 5659 5660 5662 5664 5666 5668 5669 5671 5673 5675 5678 5680 5682 5683 5685 5686 5687 5688 5688 5689 5690 5690 5690 5691 5691 5691 5691 5690 5690 5690 5689 5689
5631 5632 5634 5635 5637 5638 5640 5641 5642 5644 5646 5648 5650 5651 5653 5655 5656 5658 5660 5662 5664 5666 5669 5671 5672 5673 5674 5675 5676 5677 5677 5678 5679 5679 5679 5680 5680 5679 5679 5679 5679 5678 5677
5620 5621 5623 5624 5626 5627 5629 5630 5632 5633 5635 5637 5638 5640 5642 5643 5645 5646 5648 5650 5653 5655 5657 5659 5661 5661 5662 5663 5664 5665 5666 5666 5667 5667 5668 5668 5668 5668 5668 5667 5667 5666 5665
5609 5610 5612 5614 5615 5617 5618 5620 5621 5623 5624 5626 5627 5628 5630 5632 5633 5635 5637 5639 5640 5643 5645 5648 5649 5649 5650 5651 5652 5653 5654 5655 5655 5655 5656 5656 5656 5656 5656 5655 5654 5654 5653
5597 5599 5601 5603 5605 5606 5608 5609 5610 5612 5613 5614 5616 5617 5619 5620 5622 5624 5625 5627 5629 5630 5633 5635 5636 5637 5638 5639 5640 5641 5642 5643 5643 5644 5644 5644 5644 5644 5643 5642 5641 5640 5640
5586 5588 5590 5592 5594 5596 5597 5599 5600 5601 5602 5604 5605 5606 5608 5609 5611 5612 5614 5615 5617 5618 5620 5623 5624 5624 5625 5626 5627 5628 5629 5630 5630 5631 5631 5631 5631 5631 5630 5629 5628 5628 5627
5576 5578 5580 5582 5584 5586 5587 5589 5590 5591 5592 5593 5594 5596 5597 5598 5599 5601 5602 5603 5605 5606 5607 5609 5611 5611 5612 5613 5614 5615 5616 5617 5617 5618 5618 5618 5618 5618 5617 5617 5615 5614 5613
5566 5568 5570 5572 5574 5575 5577 5578 5579 5580 5581 5582 5583 5584 5585 5587 5588 5588 5590 5591 5591 5593 5594 5596 5597 5598 5599 5600 5601 5602 5603 5604 5604 5605 5604 5604 5604 5604 5604 5603 5602 5601 5599
5557 5558 5560 5562 5564 5565 5567 5568 5569 5570 5571 5572 5572 5573 5574 5575 5575 5576 5577 5578 5579 5580 5581 5582 5584 5585 5586 5586 5588 5588 5589 5590 5591 5591 5591 5591 5591 5591 5590 5589 5588 5586 5585
5547 5549 5550 5552 5554 5555 5556 5557 5559 5559 5560 5561 5561 5562 5563 5563 5564 5564 5565 5565 5566 5567 5568 5568 5570 5571 5572 5573 5574 5574 5575 5576 5577 5578 5577 5577 5577 5577 5576 5575 5573 5572 5570
5538 5540 5541 5543 5544 5545 5546 5547 5548 5549 5550 5550 5551 5551 5551 5552 5552 5552 5553 5553 5554 5554 5555 5555 5556 5557 5558 5559 5560 5561 5561 5561 5562 5563 5563 5563 5563 5563 5562 5560 5559 5558 5556
5530 5531 5532 5533 5534 5535 5536 5537 5538 5539 5539 5540 5540 5540 5541 5541 5541 5541 5541 5542 5542 5542 5542 5543 5544 5544 5544 5545 5546 5547 5547 5548 5548 5549 5549 5550 5549 5549 5548 5547 5546 5544 5543
5521 5522 5523 5524 5525 5526 5527 5527 5528 5528 5529 5529 5529 5530 5530 5530 5530 5530 5530 5530 5530 5530 5530 5531 5531 5531 5532 5533 5533 5534 5535 5535 5536 5536 5536 5536 5537 5536 5535 5534 5533 5531 5530
5512 5513 5514 5515 5516 5517 5517 5518 5518 5519 5519 5519 5520 5520 5520 5519 5519 5519 5519 5519 5520 5520 5520 5520 5520 5520 5521 5521 5522 5522 5523 5524 5524 5525 5524 5524 5523 5522 5523 5522 5520 5519 5518